Location: Recife
(8.0585°S, 34.8848°W)
Time: 13:28:53
(UTC-03:00)

Vanguard 2 - Pass Details

Date: 21 April 2026
Orbit: 553 x 2895 km, 32.9° (Epoch: 13 May)

Event Time Altitude Azimuth Distance (km) Brightness Sun altitude
Exits shadow 01:00:28 24° 133° (SE) 4,262 11.3 -64.6°
Drops below altitude 10° 01:06:22 10° 112° (ESE) 4,945 11.8 -63.1°
Sets 01:10:29 0° 102° (ESE) 5,640 12.3 -62.1°
